User: anonymous   Login
Location: M.A.R.S.Observatory
(35.4031°N, 81.5481°W)
Time: 19:46:13
(UTC-05:00)
Language:

SL-8 R/B - Orbit

View from above orbital plane
View from above orbital plane
View from above satellite
View from above satellite

Ground track
Ground track

The orbit data is extracted from the following two-line orbital elements,

1 33066U 08031G   18052.36317553 -.00000196  00000-0 -16955-7 0  9990
2 33066  48.4446  24.8261 0007052  88.4961  66.4130 14.69596753519407
Epoch (UTC): 21 February 2018 08:42:58
Eccentricity: 0.0007052
inclination: 48.4446°
perigee height: 657 km
apogee height: 667 km
right ascension of ascending node: 24.8261°
argument of perigee: 88.4961°
revolutions per day: 14.69596753
mean anomaly at epoch: 66.4130°
orbit number at epoch: 51940

The dashed part of the orbit path shows where the satellite is in the earth's shadow,  

DLR